Tracking 34171 objects as of 21-May-2026
HD Live streaming from Space Station
objects crossing your sky now

KUIPER-00293

Track KUIPER-00293 now!
10-day predictions
KUIPER-00293 is classified as:


NORAD ID: 68593
Int'l Code: 2026-072W
Perigee: 531.8 km
Apogee: 549.0 km
Inclination: 51.9 °
Period: 95.3 minutes
Semi major axis: 6911 km
RCS: Unknown
Launch date: April 4, 2026
Source: United States (US)
Launch site: AIR FORCE EASTERN TEST RANGE (AFETR)
Your satellite tracking list
Your tracking list is empty




NASA's NSSDC Master Catalog

Two Line Element Set (TLE):
1 68593U 26072W   26140.91668981  .00049437  00000-0  29201-2 0  9992
2 68593  51.8814 310.4323 0012376 298.0234 331.0375 15.10962193  5388
Source of the keplerian elements: AFSPC